Weather Roundup
Issued by NWS Chicago, IL

Home | Current Version | Previous Version | Graphics & Text | Print | Product List | Glossary On
Versions: 1 2 3 4 5 6 7 8 9 10 11 12 13 14 15 16 17 18 19 20 21 22 23 24 25 26 27 28 29 30 31 32 33 34 35 36 37 38 39 40 41 42 43 44 45 46 47 48 49 50
000
NZUS59 KLOT 050358
HRRLOT

CHICAGO AREA WEATHER ROUNDUP
NATIONAL WEATHER SERVICE CHICAGO/ROMEOVILLE IL
1000 PM CST WED MAR 04 2015

NOTE: "FAIR" INDICATES FEW OR NO CLOUDS BELOW 12,000 FEET WITH NO
SIGNIFICANT WEATHER AND/OR OBSTRUCTIONS TO VISIBILITY.

* THESE STATIONS ARE NOT UNDER NWS QUALITY CONTROL. THEY ALSO MAY NOT
  REPORT WEATHER SUCH AS PRECIPITATION OR FOG.

ILZ005-006-012>014-019>023-050500-
NORTHEAST ILLINOIS

CITY           SKY/WX    TMP DP  RH WIND       PRES   REMARKS
OHARE          CLOUDY    13   0  56 NW15      30.32S WCI  -3
MIDWAY         MOCLDY    17   1  49 NW8       30.34R WCI   7
AURORA         CLEAR     11   0  61 NW13      30.35R WCI  -4
WAUKEGAN       NOT AVBL
DUPAGE AIRPORT CLEAR     12  -1  56 NW14      30.32S WCI  -3
WHEELING       PTCLDY    14  -1  51 NW9       30.35S WCI   2
NORTHERLY IS     N/A     17   1  49 W13         N/A  WCI   4
$$

WIZ051-052-058>065-066-070>072-050500-
SOUTHEAST WISCONSIN

CITY           SKY/WX    TMP DP  RH WIND       PRES   REMARKS
MILWAUKEE      MOCLDY    12  -8  40 N12       30.32R WCI  -2
KENOSHA*       PTCLDY     3  -9  57 W6        30.33R WCI  -8
RACINE*        PTCLDY    10  -7  46 W3        30.34R
$$

INZ001>003-010>013-019-020-050500-
NORTHWEST INDIANA

CITY           SKY/WX    TMP DP  RH WIND       PRES   REMARKS
GARY*          MOCLDY    18   0  45 W16       30.33R WCI   3
MICHIGAN CITY* NOT AVBL
RENSSELAER*    NOT AVBL
$$

LMZ740>746-050500-
SOUTHERN LAKE MICHIGAN

STATION/POSITION TIME  SKY/WX   TEMP WIND        PRES    VSBY
                                AIR  DIR/SP/G
                 (UTC)          (F)  (DEG/KT/KT) (MB)    (MI)
HARRISON CRIB    0300            17  300/ 18/ 21   N/A
BURNHAM HARBOR   0300            18  310/  4/ 13   N/A
CALUMET HARBOR   0300            17  270/  6/  9 1024.7S
BURNS HARBOR     NOT AVBL
MICHIGAN CITY    0300            18  270/ 11/ 14   N/A
$$

ABBREVIATIONS USED IN REMARKS
   TC - TEMPERATURE IN CELSIUS
  WCI - WIND CHILL INDEX
   HX - HEAT INDEX
  VSB - VISIBILITY
$$



USA.gov is the U.S. government's official web portal to all federal, state and local government web resources and services.